Location: Newark
(35.6799°N, 139.7636°E)
Time: 02:04:21
(UTC+00:00)

Transit 2A - Pass Details

Date: 10 December 2019
Orbit: 601 x 958 km, 66.7° (Epoch: 25 January)

Event Time Altitude Azimuth Distance (km) Brightness Sun altitude
Rises 07:12:21 0° 328° (NNW) 2,889 9.0 1.9°
Reaches altitude 10° 07:14:34 10° 325° (NW) 2,006 8.3 1.5°
Maximum altitude 07:18:59 60° 246° (WSW) 753 6.5 0.7°
Drops below altitude 10° 07:23:47 10° 167° (SSE) 2,163 8.6 -0.2°
Sets 07:26:15 0° 163° (SSE) 3,137 9.3 -0.6°
